GFSFLT2_prec_cthk_162.txt.gz
RH
40 37 34 31 29 28 27 27 27 27 28 29 29 28 34 38 41 44 47 52 55 58 63 60 55 52 53 50 44 37 31 30
33 30 29 29 28 28 28 28 28 27 25 24 23 20 20 20 25 33 44 49 55 60 62 64 62 59 56 56 54 56 49 43
31 29 29 30 30 29 28 28 26 23 20 18 17 15 12 12 15 16 18 21 27 41 56 64 66 64 62 61 57 56 54 49
34 32 33 33 31 29 29 27 25 20 14 12 11 11 10 10 10 9 9 9 10 11 13 19 30 45 54 57 59 59 58 59
35 35 34 32 29 28 27 25 24 17 14 12 12 11 10 10 10 10 9 9 9 9 9 9 10 14 18 31 46 56 59 58
35 34 31 29 26 24 24 23 19 15 13 12 12 11 11 10 9 9 10 10 10 10 10 10 10 10 12 13 18 31 49 59
31 29 28 27 26 24 21 17 16 14 13 13 12 12 12 11 10 9 9 9 10 10 10 10 10 10 11 12 14 16 23 38
26 24 22 21 20 19 19 18 17 16 15 14 14 14 14 13 12 11 10 10 10 10 10 10 10 10 10 11 11 14 15 20
24 23 22 21 20 19 19 19 18 18 17 17 17 17 16 15 13 13 12 11 11 11 11 10 10 10 10 10 10 11 12 14
18 17 17 18 18 18 18 18 18 19 20 20 19 18 17 15 15 14 13 13 12 12 11 11 11 11 11 10 11 11 11 12
24 24 24 24 24 24 24 23 23 22 22 23 23 22 21 20 20 19 18 17 17 16 15 15 14 13 13 12 12 11 11 12
31 28 27 26 26 26 27 28 30 30 30 29 30 29 28 26 26 25 24 24 23 23 22 21 22 21 18 16 14 13 12 12
39 37 35 33 33 33 33 34 34 34 33 33 31 31 30 29 28 27 27 27 27 28 29 29 28 28 26 22 18 17 16 15
44 41 39 38 37 36 36 36 37 36 35 33 31 30 31 31 30 30 31 31 32 32 32 32 32 32 32 30 25 20 22 23
48 47 44 39 38 36 36 36 35 32 29 30 30 29 29 31 31 32 33 33 34 35 36 37 36 36 39 39 37 35 28 27
52 49 47 42 35 32 33 33 32 30 28 27 28 29 30 33 35 37 39 41 42 42 41 42 42 42 42 42 42 41 40 33
59 56 53 45 39 40 38 37 35 31 28 27 26 29 31 33 36 40 42 44 45 46 46 47 47 46 47 47 46 45 44 43
60 57 54 47 42 40 39 37 36 35 33 30 27 25 26 30 34 39 43 46 47 51 51 52 51 51 51 52 50 47 46 47
56 55 49 43 43 45 45 42 40 36 33 28 26 23 22 22 30 35 42 47 51 53 56 57 56 56 55 55 55 53 51 51
56 51 46 46 48 48 46 44 42 39 34 29 27 22 19 18 21 28 32 36 46 53 57 60 62 61 60 59 58 58 56 54

GFSFLT2_prec_cthk_165.txt.gz
RH
56 49 42 37 33 29 27 26 25 25 26 26 27 27 30 31 34 38 41 42 47 53 55 56 59 60 55 53 52 50 46 40
46 43 37 31 29 28 28 28 28 28 27 27 24 20 18 17 17 17 21 31 39 48 54 58 62 63 65 61 59 56 53 48
42 37 31 30 29 30 30 30 29 29 28 26 23 16 13 12 10 11 14 14 16 18 27 40 52 62 68 67 64 61 58 56
39 36 34 33 32 32 32 31 30 29 27 25 22 14 12 12 11 10 10 10 10 9 9 11 13 18 27 47 58 60 60 61
35 34 33 33 34 33 31 29 27 27 26 24 19 14 13 12 12 11 10 10 10 9 9 9 9 9 9 10 14 24 39 51
35 35 35 34 32 30 29 27 25 23 20 19 16 14 13 13 13 12 11 10 10 9 10 10 10 10 10 10 10 11 14 22
31 31 30 29 28 27 25 24 23 20 18 17 15 14 14 14 14 14 13 12 11 10 9 9 9 10 10 10 10 9 11 13
27 26 25 24 23 22 21 20 19 19 18 17 16 16 16 16 16 16 16 14 13 12 10 9 9 9 9 10 10 10 10 10
22 22 20 19 19 19 19 19 18 18 18 18 18 18 18 18 17 17 16 15 14 13 12 11 10 10 9 9 9 9 9 10
25 26 25 24 23 23 23 23 22 22 22 21 21 21 21 20 20 19 17 16 16 15 14 12 11 10 10 9 9 9 9 9
30 29 30 28 27 27 27 26 27 27 27 27 28 28 28 27 26 24 22 21 20 19 18 18 17 16 15 13 12 11 11 11
37 38 36 37 36 35 34 33 34 34 33 32 31 30 29 28 27 27 26 26 25 24 24 24 24 23 21 19 18 17 16 15
45 44 42 41 41 41 40 38 36 33 31 31 31 30 30 28 28 28 28 28 28 29 29 27 28 29 26 23 20 21 21 22
50 48 45 43 42 42 40 39 36 32 29 29 29 29 28 28 28 29 29 30 31 32 32 32 31 34 34 32 30 27 30 30
54 51 47 47 47 45 40 36 34 30 27 26 24 25 26 27 29 30 31 33 34 36 38 40 38 38 39 40 38 36 33 31
60 59 59 54 48 44 41 35 33 31 28 26 25 25 25 26 28 29 31 33 36 39 43 43 43 42 42 44 44 43 41 36
66 66 58 52 47 44 40 36 32 32 32 29 27 25 22 22 27 28 28 30 35 40 43 45 48 48 46 46 47 47 48 46
67 60 56 52 46 41 41 42 38 38 38 36 34 30 26 23 22 24 28 30 36 40 45 48 50 53 53 52 51 50 51 51
64 60 55 51 48 44 44 43 42 44 43 42 38 34 32 29 26 20 19 26 31 35 41 48 52 55 58 57 56 55 55 54
61 59 56 50 48 47 44 42 41 41 44 44 41 36 34 33 29 23 19 21 27 28 32 40 51 57 60 63 62 58 57 58

GFSFLT2_prec_cthk_168.txt.gz
RH
58 56 54 54 46 39 32 29 28 27 26 26 27 26 26 25 24 26 30 34 37 42 47 53 57 57 58 61 58 52 47 48
58 56 52 44 37 32 30 28 28 28 28 28 28 28 26 22 15 13 13 13 15 19 31 43 52 56 61 63 64 63 59 53
50 48 45 41 36 33 31 31 31 31 30 29 28 28 26 22 15 12 11 11 13 14 15 16 20 31 47 59 67 71 69 63
48 47 45 42 38 37 36 35 34 32 30 28 27 26 24 22 16 13 12 12 11 11 10 10 10 11 13 18 27 44 60 65
46 44 42 38 36 35 35 35 33 31 29 28 25 22 22 21 15 13 13 13 12 11 11 10 10 10 10 10 10 10 14 22
40 38 36 34 33 33 33 31 30 28 26 25 25 23 21 16 15 14 13 13 13 13 12 11 10 10 10 10 11 11 11 10
34 31 30 29 28 28 28 28 27 26 24 22 20 19 18 17 16 15 15 15 14 14 13 12 11 10 10 9 9 10 10 10
28 28 27 25 24 24 23 23 22 22 21 20 18 18 17 17 16 16 17 17 16 15 15 13 13 12 11 10 10 9 10 10
25 24 23 23 22 22 22 21 21 21 21 21 21 21 21 21 20 19 19 17 17 16 15 14 14 13 12 11 10 10 9 9
28 27 27 27 27 28 28 28 28 27 27 27 26 25 25 25 24 22 21 21 20 19 18 17 16 15 14 13 12 11 10 10
34 34 35 34 34 34 34 33 34 34 34 32 30 28 27 26 26 25 24 23 23 23 22 20 19 18 17 16 15 14 13 12
38 39 37 38 38 38 38 38 39 37 35 33 32 31 28 26 25 25 24 24 24 24 25 26 26 25 23 22 21 19 18 19
45 45 45 45 44 43 42 41 40 37 34 32 29 27 26 25 24 22 21 22 24 26 28 29 30 30 27 26 26 27 28 28
49 53 52 48 45 44 44 44 41 36 34 31 26 23 23 23 22 22 22 22 23 24 27 29 32 35 36 34 32 32 33 33
62 61 52 48 49 50 50 44 39 37 34 29 25 24 24 23 23 23 20 21 23 25 28 31 33 38 41 42 40 40 37 36
61 57 54 56 57 53 48 43 40 36 32 30 28 26 24 23 22 21 20 23 24 26 28 32 36 40 42 48 49 46 45 40
66 68 68 67 54 49 48 44 38 37 36 33 31 30 30 29 27 25 24 26 26 26 31 34 39 43 46 47 51 50 50 48
77 75 65 61 53 50 47 41 40 39 37 36 32 32 33 33 32 31 27 27 28 26 28 33 40 44 49 50 56 55 53 52
77 70 62 56 53 48 47 43 42 40 38 36 36 36 36 37 33 30 28 25 26 24 24 31 37 43 48 55 61 62 59 57
72 67 62 57 52 48 46 45 44 40 36 35 39 38 38 36 33 31 28 29 26 24 26 28 34 39 47 55 62 67 69 68

GFSFLT2_prec_cthk_171.txt.gz
RH
66 65 62 63 61 54 49 38 35 31 30 28 28 27 27 26 26 25 22 17 17 20 27 35 43 50 54 54 54 56 57 53
60 60 61 57 56 50 40 37 33 33 31 32 30 30 29 28 26 25 21 16 11 11 10 13 15 23 41 53 56 61 63 64
56 61 58 58 49 44 41 37 34 33 33 32 31 30 29 27 26 24 21 17 13 12 11 12 13 14 15 19 30 47 62 67
56 53 51 47 45 42 39 35 37 37 35 33 31 30 28 25 23 22 22 17 14 13 12 12 13 12 11 11 12 16 23 37
49 48 47 46 45 43 42 41 38 37 34 32 30 28 26 24 24 23 20 18 14 14 13 13 12 12 11 10 9 9 9 10
44 44 43 42 41 39 37 35 33 31 29 28 27 27 27 25 23 20 19 17 15 14 14 14 14 13 12 12 11 10 10 10
39 36 33 30 29 28 28 28 27 26 26 25 24 23 22 21 19 18 18 17 17 16 15 15 15 14 14 13 12 11 10 10
32 28 26 25 25 25 24 24 23 23 22 22 21 21 21 20 20 20 19 18 17 16 15 15 15 15 14 14 13 12 11 11
28 25 24 24 24 24 24 24 25 25 26 26 26 26 24 23 22 21 20 19 20 19 18 17 16 15 14 14 14 14 13 12
31 29 28 29 30 30 31 31 30 30 30 31 30 29 28 27 26 24 22 21 20 19 19 18 17 17 16 15 15 15 15 14
35 33 35 36 35 35 35 36 36 35 35 35 35 34 32 30 27 25 23 22 21 21 21 21 21 21 20 19 18 17 17 17
39 40 42 41 40 39 39 38 40 41 40 37 35 32 30 28 25 22 20 19 18 18 19 19 21 22 23 24 24 25 25 25
45 45 46 44 44 43 43 46 44 41 39 37 35 34 31 27 25 22 20 19 18 17 17 17 19 21 21 22 26 32 34 33
50 51 51 47 46 46 49 47 44 43 41 39 37 33 29 26 24 23 20 19 18 18 18 19 21 24 26 28 29 33 33 36
53 52 51 54 55 55 50 48 50 48 45 39 36 33 29 27 26 23 21 20 21 20 21 22 24 28 31 35 36 37 38 41
56 58 61 61 59 58 58 60 49 46 41 37 34 32 31 28 26 23 22 22 22 23 23 25 28 30 34 37 41 43 44 42
67 70 68 67 64 64 58 53 48 43 41 39 36 35 30 29 27 25 26 27 25 26 25 27 31 31 37 41 47 51 52 52
74 75 75 74 71 61 56 52 48 44 41 38 36 33 30 28 27 27 28 27 26 25 25 25 29 33 36 41 49 56 61 60
77 80 74 66 62 56 53 50 49 46 41 40 34 34 33 32 30 31 31 30 27 24 24 28 29 33 36 41 47 53 59 67
71 68 69 67 63 55 50 47 46 44 43 41 40 38 39 38 36 35 34 30 25 23 26 28 28 29 34 36 42 51 58 68